| time (UTC) | temp F | wind direction | speed MPH | gust MPH | rain 1hr in | rain 24hr in | rain mn in | humidity % | barometer mb |
| 20260902043016 | 59 | 159 | 1.0 | 5.0 | 0.00 | 0.00 | 0.00 | 94 | 1015.9 |
| 20260902041519 | 59 | 180 | 0.0 | 3.0 | 0.00 | 0.00 | 0.00 | 94 | 1016.1 |
| 20260902040013 | 59 | 186 | 0.0 | 3.0 | 0.00 | 0.00 | 0.00 | 93 | 1015.9 |
| 20260902034512 | 59 | 222 | 2.0 | 6.0 | 0.00 | 0.00 | 0.00 | 94 | 1016.1 |
| 20260902033011 | 60 | 180 | 1.0 | 4.0 | 0.00 | 0.00 | 0.00 | 94 | 1016.2 |
| 20260902031509 | 60 | 161 | 2.0 | 4.0 | 0.00 | 0.00 | 0.00 | 93 | 1016.2 |
| 20260902030008 | 60 | 160 | 0.0 | 3.0 | 0.00 | 0.00 | 0.00 | 93 | 1016.3 |
| 20260902024511 | 60 | 193 | 1.0 | 3.0 | 0.00 | 0.00 | 0.00 | 93 | 1016.4 |
| 20260902023014 | 60 | 178 | 0.0 | 2.0 | 0.00 | 0.00 | 0.00 | 93 | 1016.6 |
| 20260902021506 | 60 | 178 | 0.0 | 3.0 | 0.00 | 0.00 | 0.00 | 93 | 1016.7 |
| 20260902020004 | 60 | 185 | 0.0 | 3.0 | 0.00 | 0.00 | 0.00 | 93 | 1016.8 |
| 20260902014504 | 60 | 157 | 1.0 | 3.0 | 0.00 | 0.00 | 0.00 | 93 | 1016.7 |
| 20260902013059 | 60 | 149 | 1.0 | 4.0 | 0.00 | 0.00 | 0.00 | 92 | 1016.9 |
| 20260902011601 | 59 | 166 | 0.0 | 2.0 | 0.00 | 0.00 | 0.00 | 92 | 1017.0 |
| 20260902010118 | 60 | 167 | 0.0 | 3.0 | 0.00 | 0.00 | 0.00 | 92 | 1017.2 |
| 20260902004554 | 59 | 163 | 0.0 | 4.0 | 0.00 | 0.00 | 0.00 | 91 | 1017.3 |
| 20260902003051 | 59 | 164 | 0.0 | 0.0 | 0.00 | 0.00 | 0.00 | 91 | 1017.5 |
| 20260902001550 | 60 | 164 | 0.0 | 3.0 | 0.00 | 0.00 | 0.00 | 90 | 1017.6 |
| 20260902000050 | 60 | 182 | 2.0 | 4.0 | 0.00 | 0.00 | 0.00 | 90 | 1017.6 |
| 20260901234541 | 60 | 188 | 1.0 | 5.0 | 0.00 | 0.00 | 0.00 | 89 | 1017.5 |
| 20260901233038 | 60 | 176 | 2.0 | 4.0 | 0.00 | 0.00 | 0.00 | 89 | 1017.6 |
| 20260901231542 | 60 | 199 | 1.0 | 4.0 | 0.00 | 0.00 | 0.00 | 88 | 1017.7 |
| 20260901230035 | 60 | 188 | 1.0 | 4.0 | 0.00 | 0.00 | 0.00 | 88 | 1017.6 |
| 20260901224540 | 60 | 196 | 1.0 | 4.0 | 0.00 | 0.00 | 0.00 | 87 | 1017.8 |
| 20260901223045 | 60 | 177 | 2.0 | 6.0 | 0.00 | 0.00 | 0.00 | 86 | 1017.8 |
| 20260901221529 | 60 | 196 | 1.0 | 3.0 | 0.00 | 0.00 | 0.00 | 85 | 1017.9 |
| 20260901220031 | 60 | 191 | 1.0 | 5.0 | 0.00 | 0.00 | 0.00 | 85 | 1017.9 |
| 20260901214529 | 60 | 196 | 3.0 | 6.0 | 0.00 | 0.00 | 0.00 | 86 | 1017.8 |
| 20260901213034 | 60 | 192 | 0.0 | 3.0 | 0.00 | 0.00 | 0.00 | 86 | 1017.8 |
| 20260901211529 | 60 | 196 | 1.0 | 3.0 | 0.00 | 0.00 | 0.00 | 85 | 1018.1 |
| 20260901210037 | 61 | 203 | 1.0 | 3.0 | 0.00 | 0.00 | 0.00 | 84 | 1017.8 |
| 20260901204529 | 61 | 196 | 0.0 | 2.0 | 0.00 | 0.00 | 0.00 | 85 | 1017.8 |
| 20260901203025 | 61 | 183 | 0.0 | 2.0 | 0.00 | 0.00 | 0.00 | 84 | 1018.0 |
| 20260901201524 | 61 | 180 | 1.0 | 4.0 | 0.00 | 0.00 | 0.00 | 84 | 1017.8 |
| 20260901200039 | 62 | 166 | 0.0 | 3.0 | 0.00 | 0.00 | 0.00 | 83 | 1017.8 |
| 20260901194523 | 62 | 185 | 0.0 | 3.0 | 0.00 | 0.00 | 0.00 | 81 | 1017.8 |
| 20260901193022 | 63 | 234 | 2.0 | 7.0 | 0.00 | 0.00 | 0.00 | 81 | 1017.8 |
| 20260901191529 | 62 | 242 | 2.0 | 4.0 | 0.00 | 0.00 | 0.00 | 81 | 1017.6 |
| 20260901190022 | 63 | 248 | 0.0 | 6.0 | 0.00 | 0.00 | 0.00 | 81 | 1017.6 |
| 20260901184522 | 63 | 253 | 0.0 | 0.0 | 0.00 | 0.00 | 0.00 | 81 | 1017.1 |
| 20260901183021 | 63 | 270 | 0.0 | 2.0 | 0.00 | 0.00 | 0.00 | 80 | 1017.4 |
| 20260901181522 | 63 | 275 | 0.0 | 2.0 | 0.00 | 0.00 | 0.00 | 80 | 1017.6 |
| 20260901180027 | 64 | 291 | 0.0 | 1.0 | 0.00 | 0.00 | 0.00 | 80 | 1017.4 |
| 20260901174519 | 64 | 323 | 1.0 | 4.0 | 0.00 | 0.00 | 0.00 | 80 | 1017.7 |
| 20260901173018 | 64 | 324 | 1.0 | 9.0 | 0.00 | 0.00 | 0.00 | 80 | 1017.5 |
| 20260901171517 | 64 | 313 | 2.0 | 7.0 | 0.00 | 0.00 | 0.00 | 80 | 1017.6 |
| 20260901170028 | 64 | 321 | 3.0 | 8.0 | 0.00 | 0.00 | 0.00 | 79 | 1017.9 |
| 20260901164517 | 65 | 302 | 2.0 | 5.0 | 0.00 | 0.00 | 0.00 | 79 | 1017.7 |
| 20260901163020 | 65 | 312 | 2.0 | 8.0 | 0.00 | 0.00 | 0.00 | 79 | 1017.6 |
| 20260901161516 | 66 | 273 | 4.0 | 12.0 | 0.00 | 0.00 | 0.00 | 77 | 1017.7 |
| 20260901160026 | 66 | 302 | 1.0 | 7.0 | 0.00 | 0.00 | 0.00 | 76 | 1017.7 |
| 20260901154514 | 66 | 279 | 3.0 | 6.0 | 0.00 | 0.00 | 0.00 | 74 | 1017.6 |
| 20260901153014 | 67 | 282 | 4.0 | 9.0 | 0.00 | 0.00 | 0.00 | 73 | 1017.5 |
| 20260901151514 | 66 | 220 | 3.0 | 8.0 | 0.00 | 0.00 | 0.00 | 74 | 1017.7 |
| 20260901150015 | 65 | 244 | 4.0 | 9.0 | 0.00 | 0.00 | 0.00 | 74 | 1017.6 |
| 20260901144512 | 64 | 274 | 6.0 | 10.0 | 0.00 | 0.00 | 0.00 | 78 | 1017.6 |
| 20260901143015 | 65 | 257 | 8.0 | 13.0 | 0.00 | 0.00 | 0.00 | 79 | 1017.9 |
| 20260901141511 | 66 | 252 | 6.0 | 12.0 | 0.00 | 0.00 | 0.00 | 75 | 1017.9 |
| 20260901140010 | 67 | 238 | 5.0 | 10.0 | 0.00 | 0.00 | 0.00 | 74 | 1017.9 |
| 20260901134512 | 68 | 161 | 6.0 | 15.0 | 0.00 | 0.00 | 0.00 | 74 | 1017.7 |
| 20260901133009 | 68 | 153 | 7.0 | 11.0 | 0.00 | 0.00 | 0.00 | 72 | 1017.6 |
| 20260901131514 | 67 | 209 | 3.0 | 10.0 | 0.00 | 0.00 | 0.00 | 71 | 1017.8 |
| 20260901130008 | 68 | 244 | 3.0 | 7.0 | 0.00 | 0.00 | 0.00 | 68 | 1017.9 |
| 20260901124507 | 68 | 236 | 4.0 | 8.0 | 0.00 | 0.00 | 0.00 | 69 | 1017.8 |
| 20260901123006 | 70 | 230 | 5.0 | 10.0 | 0.00 | 0.00 | 0.00 | 65 | 1017.5 |
| 20260901121504 | 70 | 244 | 4.0 | 8.0 | 0.00 | 0.00 | 0.00 | 64 | 1017.6 |
| 20260901120002 | 68 | 312 | 3.0 | 8.0 | 0.00 | 0.00 | 0.00 | 65 | 1017.8 |
| 20260901114503 | 69 | 264 | 6.0 | 12.0 | 0.00 | 0.00 | 0.00 | 66 | 1017.8 |
| 20260901113108 | 68 | 196 | 5.0 | 11.0 | 0.00 | 0.00 | 0.00 | 68 | 1017.8 |
| 20260901111607 | 68 | 236 | 3.0 | 10.0 | 0.00 | 0.00 | 0.00 | 69 | 1017.8 |
| 20260901104557 | 67 | 182 | 5.0 | 13.0 | 0.00 | 0.00 | 0.00 | 72 | 1018.2 |
| 20260901103050 | 66 | 227 | 5.0 | 10.0 | 0.00 | 0.00 | 0.00 | 75 | 1018.2 |
| 20260901101558 | 65 | 159 | 4.0 | 9.0 | 0.00 | 0.00 | 0.00 | 75 | 1018.4 |
| 20260901100056 | 64 | 209 | 5.0 | 10.0 | 0.00 | 0.00 | 0.00 | 77 | 1018.5 |
| 20260901094541 | 64 | 254 | 6.0 | 12.0 | 0.00 | 0.00 | 0.00 | 78 | 1018.4 |
| 20260901093035 | 63 | 215 | 4.0 | 9.0 | 0.00 | 0.00 | 0.00 | 82 | 1018.7 |
| 20260901091531 | 62 | 208 | 3.0 | 8.0 | 0.00 | 0.00 | 0.00 | 84 | 1018.6 |
| 20260901090039 | 61 | 187 | 3.0 | 7.0 | 0.00 | 0.00 | 0.00 | 87 | 1018.4 |
| 20260901084524 | 60 | 186 | 3.0 | 6.0 | 0.00 | 0.01 | 0.00 | 89 | 1018.4 |
| 20260901083031 | 59 | 186 | 3.0 | 7.0 | 0.00 | 0.01 | 0.00 | 93 | 1018.5 |
| 20260901081520 | 58 | 209 | 0.0 | 0.0 | 0.00 | 0.01 | 0.00 | 95 | 1018.4 |
| 20260901080017 | 58 | 188 | 0.0 | 0.0 | 0.00 | 0.01 | 0.00 | 96 | 1018.3 |
| 20260901074518 | 57 | 205 | 0.0 | 0.0 | 0.00 | 0.01 | 0.00 | 98 | 1018.5 |
| 20260901073021 | 55 | 268 | 0.0 | 0.0 | 0.00 | 0.01 | 0.00 | 99 | 1018.6 |
| 20260901071506 | 53 | 268 | 0.0 | 0.0 | 0.00 | 0.01 | 0.00 | 98 | 1018.7 |
| 20260901070006 | 52 | 268 | 0.0 | 0.0 | 0.00 | 0.01 | 0.00 | 97 | 1018.6 |
| 20260901064504 | 52 | 267 | 0.0 | 0.0 | 0.00 | 0.01 | 0.00 | 99 | 1018.4 |
| 20260901063003 | 50 | 267 | 0.0 | 0.0 | 0.00 | 0.01 | 0.00 | 99 | 1018.5 |
| 20260901061613 | 48 | 267 | 0.0 | 0.0 | 0.00 | 0.01 | 0.00 | 98 | 1018.5 |
| 20260901060100 | 48 | 184 | 0.0 | 0.0 | 0.00 | 0.01 | 0.00 | 98 | 1018.3 |
| 20260901054555 | 47 | 189 | 0.0 | 0.0 | 0.00 | 0.01 | 0.00 | 97 | 1018.1 |
| 20260901053119 | 47 | 189 | 0.0 | 0.0 | 0.00 | 0.01 | 0.00 | 97 | 1018.1 |
| 20260901051553 | 47 | 188 | 0.0 | 0.0 | 0.00 | 0.01 | 0.00 | 97 | 1017.9 |
| 20260901050056 | 47 | 188 | 0.0 | 0.0 | 0.00 | 0.01 | 0.00 | 96 | 1017.7 |
| 20260901044549 | 47 | 188 | 0.0 | 0.0 | 0.00 | 0.01 | 0.00 | 95 | 1017.6 |